Other Public Products
Issued by NWS Charleston, SC

Current Version | Previous Version | Graphics & Text | Print | Product List | Glossary On
Versions: 1 2 3 4 5 6 7 8 9 10 11 12 13 14 15 16 17 18 19 20 21 22 23 24 25 26 27 28 29 30 31 32 33 34 35 36 37 38 39 40 41 42 43 44 45 46 47 48 49 50
000 FPUS82 KCHS 210412 OPUCHS TEST...KCHS/KSAV Gateway Observations...TEST National Weather Service Charleston SC 1100 PM EST TUE FEB 20 2018 NOTE: "fair" indicates few or no clouds below 12,000 feet with no significant weather and/or obstructions to visibility. SCZ050-WAZ558-NCZ071-TXZ119-213-PAZ071-DCZ001-FLZ074-172-MI076- NYZ176-178-MAZ016-IL014-TNZ027-NJZ106-GAZ044-MD014-210500- ...Gateway Observations for Charleston International... CITY SKY/WX TMP DP RH WIND PRES REMARKS Chas Airport FAIR 65 64 97 SE6 30.44S Seattle PTCLDY 33 22 63 N12 30.22R WCI 24 Charlotte FAIR 67 61 81 SE7 30.42R Dallas DFW RAIN 40 38 93 N20 30.11R FOG WCI 30 Dallas Love HVY RAIN 40 38 93 N15 30.13R WCI 32 Philladelphia FAIR 59 56 89 S9 30.34F Wash National MOCLDY 61 56 83 S12 30.33F Baltimore FAIR 56 56 100 SE6 30.32S Miami MOCLDY 77 72 84 E21G28 30.33S Detroit CLOUDY 57 54 89 SW3 30.05R Newark MOCLDY 60 55 83 S7 30.32S Laguardia FAIR 54 48 80 S7 30.32S J F K FAIR 47 47 100 S6 30.35S Boston Logan FAIR 44 42 93 NE3 30.27S Ft. Lauderdale FAIR 76 73 91 E22 30.33S Chicago O`Hare LGT RAIN 34 31 88 NW7 30.13R WCI 28 Chicago Midway LGT RAIN 36 36 100 W9 30.14R WCI 29 Houston Bush CLOUDY 75 70 84 S10 30.03S Houston Hobby CLOUDY 73 72 96 SE10 30.03S Nashville FAIR 71 60 68 S14 30.20R Atlanta MOCLDY 69 63 81 SE7 30.35R $$ GAZ044-118-TXZ119-213-NCZ071-DCZ001-MDZ014-506-PAZ021-071-NJZ106- NYZ176-178-MAZ106-OHZ011-021-055-MIZ076-KYZ091-ILZ014-INZ047- MNZ060-ONZ431-210500- ...Gateway Observations for Savannah International... CITY SKY/WX TMP DP RH WIND PRES REMARKS Savannah Arpt FAIR 69 67 93 SE10 30.41F Atlanta MOCLDY 69 63 81 SE7 30.35R Charlotte FAIR 67 61 81 SE7 30.42R Dallas DFW RAIN 40 38 93 N20 30.11R FOG WCI 30 Houston Bush CLOUDY 75 70 84 S10 30.03S Wash National MOCLDY 61 56 83 S12 30.33F Wash Dulles FAIR 64 58 80 S16G25 30.32S Baltimore FAIR 56 56 100 SE6 30.32S Philadelphia FAIR 59 56 89 S9 30.34F Newark MOCLDY 60 55 83 S7 30.32S Laguardia FAIR 54 48 80 S7 30.32S J F K FAIR 47 47 100 S6 30.35S Boston FAIR 44 42 93 NE3 30.27S Pittsburg MOCLDY 65 50 58 S6 30.19R Akron FAIR 65 50 58 SW13 30.15R Cleveland MOCLDY 69 54 58 S13 30.11R Cincinnati MOCLDY 68 58 70 S12 30.13F Columbus FAIR 64 54 68 S13 30.15S Detroit CLOUDY 57 54 89 SW3 30.05R Chicago O`Hare LGT RAIN 34 31 88 NW7 30.13R WCI 28 Minneapolis FAIR 10 3 73 W12 30.31R WCI -5 Indianapolis CLOUDY 68 57 68 S13 30.04F Toronto Canada NOT AVBL $$

USA.gov is the U.S. government's official web portal to all federal, state and local government web resources and services.